EW2099 Weather Reports


Display with metric or nautical units.
time (UTC)temp
F
wind
direction
speed
MPH
gust
MPH
rain 1hr
in
rain 24hr
in
rain mn
in
humidity
%
barometer
mb
20260901163014 69 271 3.0 9.0 0.00 0.06 0.06 47 1021.2
20260901161512 69 292 1.0 7.0 0.00 0.06 0.06 51 1021.3
20260901160011 69 323 2.0 5.0 0.00 0.06 0.06 52 1021.2
20260901154511 69 283 2.0 5.0 0.00 0.06 0.06 52 1021.2
20260901153018 69 296 1.0 8.0 0.00 0.06 0.06 53 1021.2
20260901151508 68 243 1.0 9.0 0.00 0.06 0.06 53 1021.1
20260901150007 68 307 4.0 12.0 0.00 0.06 0.06 53 1021.1
20260901144508 69 307 2.0 8.0 0.00 0.06 0.06 53 1021.0
20260901143006 69 244 2.0 8.0 0.00 0.06 0.06 53 1021.2
20260901141507 68 262 3.0 9.0 0.00 0.06 0.06 53 1021.3
20260901140005 69 282 1.0 6.0 0.00 0.06 0.06 53 1021.3
20260901134503 69 321 2.0 7.0 0.00 0.06 0.06 53 1021.3
20260901133006 69 246 2.0 7.0 0.00 0.06 0.06 53 1021.2
20260901131506 68 303 2.0 11.0 0.00 0.06 0.06 53 1021.3
20260901130002 68 227 3.0 8.0 0.00 0.06 0.06 53 1021.4
20260901124602 69 256 2.0 9.0 0.00 0.06 0.06 53 1021.4
20260901123100 69 205 2.0 8.0 0.00 0.06 0.06 53 1021.4
20260901121611 68 46 2.0 10.0 0.00 0.06 0.06 53 1021.4
20260901120106 68 268 3.0 8.0 0.00 0.06 0.06 53 1021.4
20260901114602 68 352 1.0 7.0 0.00 0.06 0.06 53 1021.4
20260901113056 68 336 2.0 8.0 0.00 0.06 0.06 53 1021.5
20260901111559 68 272 2.0 7.0 0.00 0.06 0.06 53 1021.5
20260901110053 67 260 2.0 7.0 0.00 0.06 0.06 54 1021.5
20260901104552 68 293 3.0 9.0 0.00 0.06 0.06 53 1021.5
20260901103101 68 274 2.0 7.0 0.00 0.06 0.06 53 1021.4
20260901101553 67 360 3.0 7.0 0.00 0.06 0.06 53 1021.3
20260901100049 67 20 2.0 6.0 0.00 0.06 0.06 54 1021.4
20260901094547 67 252 1.0 6.0 0.00 0.08 0.06 55 1021.3
20260901093114 67 4 1.0 7.0 0.00 0.08 0.06 54 1021.2
20260901091559 66 328 2.0 6.0 0.00 0.08 0.06 56 1021.1
20260901090044 67 297 3.0 7.0 0.00 0.08 0.06 55 1021.1
20260901084543 67 3 3.0 7.0 0.00 0.08 0.06 54 1020.9
20260901083046 67 210 1.0 6.0 0.00 0.08 0.06 54 1020.8
20260901081538 66 242 1.0 7.0 0.00 0.08 0.06 55 1020.6
20260901080043 66 293 1.0 6.0 0.00 0.08 0.06 56 1020.4
20260901074535 66 295 1.0 4.0 0.00 0.08 0.06 56 1020.3
20260901073032 66 343 0.0 5.0 0.00 0.08 0.06 58 1020.1
20260901071532 65 23 1.0 7.0 0.00 0.08 0.06 59 1019.9
20260901070033 64 319 0.0 6.0 0.00 0.08 0.06 59 1019.9
20260901064530 64 259 0.0 3.0 0.00 0.08 0.06 60 1019.9
20260901063023 64 349 2.0 5.0 0.00 0.08 0.06 60 1019.8
20260901061523 63 302 1.0 4.0 0.00 0.08 0.06 61 1019.6
20260901060021 63 306 1.0 5.0 0.00 0.08 0.06 60 1019.4
20260901054520 63 309 0.0 3.0 0.00 0.21 0.06 60 1019.4
20260901053022 63 301 1.0 4.0 0.00 0.21 0.06 60 1019.3
20260901051517 63 305 1.0 4.0 0.00 0.21 0.06 60 1019.1
20260901050016 63 304 1.0 4.0 0.00 0.21 0.06 60 1019.0
20260901044514 63 323 0.0 3.0 0.00 0.31 0.06 61 1018.9
20260901043013 64 356 1.0 5.0 0.00 0.31 0.06 60 1018.8
20260901041512 64 325 0.0 4.0 0.00 0.31 0.06 60 1018.7
20260901040011 64 307 2.0 6.0 0.00 0.31 0.06 60 1018.6
20260901034512 64 291 1.0 6.0 0.00 0.36 0.06 61 1018.5
20260901033011 64 278 2.0 6.0 0.00 0.36 0.06 61 1018.2
20260901031511 64 329 2.0 9.0 0.00 0.36 0.06 61 1018.3
20260901030013 64 335 1.0 5.0 0.00 0.36 0.06 61 1018.2
20260901024506 64 342 2.0 8.0 0.00 0.36 0.06 62 1018.2
20260901023004 63 305 3.0 9.0 0.00 0.36 0.06 63 1018.2
20260901021503 63 359 3.0 8.0 0.00 0.36 0.06 65 1018.2
20260901020101 62 317 2.0 8.0 0.00 0.36 0.06 71 1018.0
20260901014604 62 250 0.0 4.0 0.00 0.37 0.06 73 1018.1
20260901013059 61 242 0.0 3.0 0.06 0.37 0.06 71 1018.1
20260901011600 62 252 1.0 4.0 0.06 0.37 0.06 70 1018.1
20260901010100 62 225 1.0 5.0 0.06 0.37 0.06 70 1017.9
20260901004556 62 217 1.0 5.0 0.06 0.37 0.06 69 1017.9
20260901003059 62 236 1.0 5.0 0.00 0.31 0.00 69 1017.9
20260901001558 62 264 1.0 5.0 0.00 0.31 0.00 69 1017.9
20260901000052 62 277 1.0 4.0 0.00 0.31 0.00 69 1017.8
20260831234554 62 236 0.0 3.0 0.00 0.31 0.00 69 1017.9
20260831233050 62 236 1.0 5.0 0.00 0.31 0.00 69 1017.9
20260831231550 61 248 0.0 5.0 0.00 0.31 0.00 69 1017.7
20260831230049 61 193 0.0 4.0 0.00 0.31 0.00 69 1017.7
20260831224547 62 220 0.0 3.0 0.00 0.31 0.00 68 1017.8
20260831223046 62 247 1.0 4.0 0.00 0.31 0.00 68 1017.7
20260831221545 63 248 1.0 4.0 0.00 0.31 0.00 68 1017.6
20260831220047 63 230 1.0 4.0 0.00 0.31 0.00 68 1017.5
20260831214544 63 178 0.0 4.0 0.00 0.31 0.31 66 1017.4
20260831213043 64 269 2.0 8.0 0.00 0.31 0.31 66 1017.3
20260831211538 65 228 1.0 8.0 0.00 0.31 0.31 65 1017.3
20260831210038 65 255 4.0 12.0 0.00 0.31 0.31 65 1017.1
20260831204551 65 290 2.0 9.0 0.00 0.31 0.31 65 1017.1
20260831203054 64 236 2.0 8.0 0.00 0.31 0.31 67 1017.0
20260831201533 64 271 1.0 7.0 0.00 0.31 0.31 67 1016.9
20260831200038 65 240 2.0 6.0 0.00 0.31 0.31 67 1016.8
20260831194531 65 220 2.0 7.0 0.00 0.31 0.31 66 1016.6
20260831193030 65 256 2.0 6.0 0.00 0.31 0.31 66 1016.6
20260831191530 65 264 3.0 10.0 0.00 0.31 0.31 65 1016.4
20260831190034 66 261 3.0 12.0 0.00 0.31 0.31 64 1016.2
20260831184530 67 238 4.0 12.0 0.00 0.31 0.31 64 1016.0
20260831183023 67 276 5.0 16.0 0.00 0.31 0.31 64 1015.8
20260831181520 67 243 5.0 14.0 0.00 0.31 0.31 63 1015.5
20260831180019 68 263 5.0 17.0 0.00 0.31 0.31 62 1015.3
20260831174517 68 271 5.0 17.0 0.00 0.56 0.31 62 1015.2
20260831173013 69 255 5.0 22.0 0.00 0.56 0.31 61 1015.1
20260831171513 69 269 6.0 16.0 0.00 0.56 0.31 60 1014.9
20260831170012 70 264 7.0 15.0 0.00 0.56 0.31 59 1014.8
20260831164510 70 148 7.0 20.0 0.00 0.56 0.31 59 1014.7